Alpena, MI

7:28 AM EST on January 20, 2017 (GMT -0500)
Alpena County Regional

Weather History for KAPN - August, 2013

Change the Weather History Date:

Monday, August 5, 2013

  Actual Average Record
Temperature  
Mean Temperature 60 °F 67 °F  
Max Temperature 75 °F 79 °F 97 °F (1931)
Min Temperature 44 °F 55 °F 37 °F (1951)
Degree Days  
Heating Degree Days 5 2  
Month to date heating degree days 16 6  
Since 1 June heating degree days 205 193  
Since 1 July heating degree days 69 50  
Cooling Degree Days 0 3  
Month to date cooling degree days 1 16  
Year to date cooling degree days 207 201  
Since 1 June cooling degree days 194 188  
Growing Degree Days 10 (Base 50)    
Moisture  
Dew Point 52 °F    
Average Humidity 71    
Maximum Humidity 96    
Minimum Humidity 46    
Precipitation  
Precipitation T in 0.10 in 0.87 in (1944)
Month to date precipitation 0.40 0.49  
Year to date precipitation 20.89 16.04  
Sea Level Pressure  
Sea Level Pressure 30.05 in    
Wind  
Wind Speed 5 mph (SSW)    
Max Wind Speed 17 mph    
Max Gust Speed 21 mph    
Visibility 8 miles    
Events      
T = Trace of Precipitation, MM = Missing Value Source: NWS Daily Summary

Daily Weather History Graph

Daily Weather History Graph

Search for Another Location

Airport or City:

Trip Planner

Search our weather history database for the weather conditions in past years. The results will help you decide how hot, cold, wet, or windy it might be!

Date:

Astronomy

Aug. 05, 2013 Rise Set
Actual Time 6:24 AM EDT 8:55 PM EDT
Civil Twilight 5:51 AM EDT 9:28 PM EDT
Nautical Twilight 5:09 AM EDT 10:09 PM EDT
Astronomical Twilight 4:21 AM EDT 10:57 PM EDT
Moon 5:19 AM EDT (8/5) 7:53 PM EDT (8/5)
Length of Visible Light 15h 37m
Length of Day
14h 31m
Waning Crescent, 1% of the Moon is Illuminated
Aug 5
Waning Crescent
Aug 6
New
Aug 14
First Quarter
Aug 20
Full
Aug 28
Last Quarter

Hourly Weather History & Observations

Time (EDT) Temp. Dew Point Humidity Pressure Visibility Wind Dir Wind Speed Gust Speed Precip Events Conditions
12:54 AM 50.0 °F 48.0 °F 93% 30.12 in 10.0 mi Calm Calm - N/A   Clear
1:38 AM 50.0 °F 48.2 °F 94% 30.12 in 2.0 mi WSW 4.6 mph - N/A   Clear
1:54 AM 51.1 °F 48.9 °F 92% 30.12 in 2.5 mi WSW 3.5 mph - N/A   Clear
2:02 AM 50.0 °F 48.2 °F 94% 30.12 in 3.0 mi Calm Calm - N/A   Clear
2:10 AM 50.0 °F 48.2 °F 94% 30.12 in 2.0 mi WSW 4.6 mph - N/A   Clear
2:23 AM 51.8 °F 48.2 °F 88% 30.12 in 1.8 mi West 4.6 mph - N/A   Clear
2:38 AM 51.8 °F 48.2 °F 88% 30.11 in 2.0 mi Calm Calm - N/A   Clear
2:54 AM 51.1 °F 48.0 °F 89% 30.12 in 2.5 mi WSW 3.5 mph - N/A   Clear
3:05 AM 50.0 °F 48.2 °F 94% 30.11 in 5.0 mi Calm Calm - N/A   Clear
3:54 AM 50.0 °F 48.0 °F 93% 30.12 in 5.0 mi WSW 3.5 mph - N/A   Clear
4:54 AM 48.9 °F 46.0 °F 90% 30.10 in 10.0 mi Calm Calm - N/A   Clear
5:54 AM 46.0 °F 43.0 °F 89% 30.10 in 10.0 mi Calm Calm - N/A   Partly Cloudy
6:54 AM 46.0 °F 45.0 °F 96% 30.10 in 10.0 mi Calm Calm - N/A   Scattered Clouds
7:54 AM 52.0 °F 50.0 °F 93% 30.10 in 10.0 mi Calm Calm - N/A   Partly Cloudy
8:04 AM 53.6 °F 51.8 °F 94% 30.10 in 1.5 mi Calm Calm - N/A   Clear
8:12 AM 53.6 °F 51.8 °F 94% 30.10 in 10.0 mi Calm Calm - N/A   Clear
8:54 AM 59.0 °F 53.1 °F 81% 30.11 in 10.0 mi Calm Calm - N/A   Clear
9:54 AM 64.9 °F 55.0 °F 70% 30.09 in 10.0 mi SSE 4.6 mph - N/A   Clear
10:54 AM 68.0 °F 54.0 °F 61% 30.07 in 10.0 mi SSE 8.1 mph - N/A   Mostly Cloudy
11:54 AM 69.1 °F 55.0 °F 61% 30.06 in 10.0 mi SSE 6.9 mph - N/A   Mostly Cloudy
12:54 PM 72.0 °F 55.0 °F 55% 30.03 in 10.0 mi SE 6.9 mph - N/A   Scattered Clouds
1:54 PM 70.0 °F 53.1 °F 55% 30.02 in 10.0 mi SSW 3.5 mph - N/A   Mostly Cloudy
2:54 PM 73.9 °F 52.0 °F 46% 29.99 in 10.0 mi SSW 10.4 mph 19.6 mph N/A   Partly Cloudy
3:54 PM 73.9 °F 55.9 °F 53% 29.98 in 10.0 mi South 11.5 mph - N/A   Partly Cloudy
4:54 PM 70.0 °F 55.9 °F 61% 29.98 in 10.0 mi South 11.5 mph - N/A   Overcast
5:54 PM 68.0 °F 55.0 °F 63% 29.98 in 10.0 mi South 10.4 mph - N/A   Mostly Cloudy
6:54 PM 66.9 °F 54.0 °F 63% 29.97 in 10.0 mi South 10.4 mph - N/A   Overcast
7:54 PM 64.9 °F 55.0 °F 70% 29.97 in 10.0 mi South 5.8 mph - 0.00 in   Overcast
8:54 PM 64.0 °F 54.0 °F 70% 29.96 in 10.0 mi SSW 4.6 mph - 0.00 in   Overcast
9:54 PM 64.0 °F 55.0 °F 73% 29.96 in 10.0 mi SSW 3.5 mph - N/A   Overcast
10:54 PM 62.1 °F 55.9 °F 80% 29.95 in 10.0 mi Calm Calm - N/A   Overcast
11:54 PM 62.1 °F 55.9 °F 80% 29.94 in 10.0 mi Calm Calm - N/A   Overcast